Powrót do katalogu

COSMOS 2087

AktywnyMilitariaHEO
NORAD 20707·PAYLOAD·🇷🇺 Russia

Wystrzelony Jul 25, 1990 z Plesetsk Cosmodrome

Loading…

Następne Przeloty (najbliższe 24 godziny)

TLE

ŚwieżeSource: Space-Track

Epoka: Sep 13, 2026, 04:23 UTC

1 20707U 90064A   26256.18326792 -.00000789  00000-0  00000-0 0  9999
2 20707  67.7578 179.6866 6315740  22.8930 355.8704  2.00388651264592

Śledź COSMOS 2087 w czasie rzeczywistym z AllMySat

Download on the App Store